Terminal Aerodrome Forecast
Issued by NWS Wilmington, OH

Current Version | Previous Version | Graphics & Text | Print | Product List | Glossary On
Versions: 1 2 3 4 5 6 7 8 9 10 11 12 13 14 15 16
000
FTUS41 KILN 031100
TAFCMH
TAF
KCMH 031120Z 0312/0412 07009KT P6SM FEW140 OVC250
     FM031500 06008KT P6SM BKN040
     FM032100 05008KT P6SM VCSH SCT025 BKN040
     FM040100 01006KT P6SM SCT040=

USA.gov is the U.S. government's official web portal to all federal, state and local government web resources and services.